SR8WXB-1 Weather Reports


Display with metric or nautical units.
time (UTC)temp
F
wind
direction
speed
MPH
gust
MPH
rain 1hr
in
rain 24hr
in
rain mn
in
humidity
%
barometer
mb
20260508033958 50 271 5.0 7.0 0.00 0.00 0.00 100 942.0
20260508033558 50 272 5.0 6.0 0.00 0.00 0.00 100 942.0
20260508033155 50 279 5.0 8.0 0.00 0.00 0.00 100 941.9
20260508032755 50 275 4.0 6.0 0.00 0.00 0.00 100 941.9
20260508032355 50 277 4.0 6.0 0.00 0.00 0.00 100 941.8
20260508031955 50 282 2.0 4.0 0.00 0.00 0.00 100 941.7
20260508031555 50 282 4.0 6.0 0.00 0.00 0.00 100 941.7
20260508031152 50 280 2.0 5.0 0.00 0.00 0.00 100 941.7
20260508030752 50 275 5.0 7.0 0.00 0.00 0.00 100 941.8
20260508030352 50 275 6.0 8.0 0.00 0.00 0.00 100 941.7
20260508025952 50 284 4.0 7.0 0.00 0.00 0.00 100 941.6
20260508025549 50 283 4.0 6.0 0.00 0.00 0.00 100 941.5
20260508025146 50 283 2.0 4.0 0.00 0.00 0.00 100 941.4
20260508024746 50 290 2.0 4.0 0.00 0.00 0.00 100 941.3
20260508024346 50 292 2.0 3.0 0.00 0.00 0.00 100 941.5
20260508023946 50 279 4.0 7.0 0.00 0.00 0.00 100 941.6
20260508023546 50 279 4.0 5.0 0.00 0.00 0.00 100 941.6
20260508023143 50 276 4.0 6.0 0.00 0.00 0.00 100 941.6
20260508022743 50 266 4.0 6.0 0.00 0.00 0.00 100 941.6
20260508022343 50 264 3.0 5.0 0.00 0.00 0.00 100 941.5
20260508021943 50 261 3.0 3.0 0.00 0.00 0.00 100 941.4
20260508021543 50 276 2.0 3.0 0.00 0.00 0.00 100 941.3
20260508021140 50 283 2.0 2.0 0.00 0.00 0.00 100 941.4
20260508020740 50 283 2.0 3.0 0.00 0.00 0.00 100 941.4
20260508020340 50 247 1.0 2.0 0.00 0.00 0.00 100 941.3
20260508015940 50 209 3.0 4.0 0.00 0.00 0.00 100 941.2
20260508015540 50 277 0.0 1.0 0.00 0.00 0.00 100 941.5
20260508015137 50 277 1.0 2.0 0.00 0.00 0.00 100 941.7
20260508014738 50 282 1.0 2.0 0.00 0.00 0.00 100 941.7
20260508014338 50 288 2.0 2.0 0.00 0.00 0.00 100 941.8
20260508013938 50 278 2.0 4.0 0.00 0.00 0.00 100 941.8
20260508013537 50 279 3.0 5.0 0.00 0.00 0.00 100 941.9
20260508013134 50 282 3.0 6.0 0.00 0.00 0.00 100 941.9
20260508012734 50 279 4.0 7.0 0.00 0.00 0.00 100 942.0
20260508012334 50 280 6.0 7.0 0.00 0.00 0.00 100 942.0
20260508011934 50 283 5.0 8.0 0.00 0.00 0.00 100 942.0
20260508011526 50 277 5.0 8.0 0.00 0.00 0.00 100 941.9
20260508011123 50 281 6.0 8.0 0.00 0.00 0.00 100 941.9
20260508010723 50 279 8.0 10.0 0.00 0.00 0.00 100 941.9
20260508005923 51 278 4.0 9.0 0.00 0.00 0.00 100 941.9
20260508005523 51 282 5.0 9.0 0.00 0.00 0.00 100 941.9
20260508005116 51 288 6.0 9.0 0.00 0.00 0.00 100 941.9
20260508004716 51 292 4.0 7.0 0.00 0.00 0.00 100 941.9
20260508004316 51 284 4.0 6.0 0.00 0.00 0.00 100 941.9
20260508003916 51 283 5.0 6.0 0.00 0.00 0.00 100 941.9
20260508003516 51 279 5.0 8.0 0.00 0.00 0.00 100 941.9
20260508003113 51 281 5.0 6.0 0.00 0.00 0.00 100 942.0
20260508002713 51 281 4.0 6.0 0.00 0.00 0.00 100 942.0
20260508002314 51 285 7.0 9.0 0.00 0.00 0.00 100 942.1
20260508001914 51 288 5.0 7.0 0.00 0.00 0.00 100 942.1
20260508001514 51 282 5.0 8.0 0.00 0.00 0.00 100 942.1
20260508001111 51 279 5.0 8.0 0.00 0.00 0.00 100 942.1
20260508000711 51 284 6.0 8.0 0.00 0.00 0.00 100 942.1
20260508000312 51 283 7.0 10.0 0.00 0.00 0.00 100 942.1
20260507235911 51 268 6.0 12.0 0.00 0.00 0.00 100 942.2
20260507235511 51 279 7.0 10.0 0.00 0.00 0.00 100 942.1
20260507235108 51 279 5.0 8.0 0.00 0.00 0.00 100 942.2
20260507234708 51 284 5.0 7.0 0.00 0.00 0.00 100 942.1
20260507234308 51 277 5.0 6.0 0.00 0.00 0.00 100 942.1
20260507233908 51 278 4.0 6.0 0.00 0.00 0.00 100 942.1
20260507233508 51 265 5.0 7.0 0.00 0.00 0.00 100 942.1
20260507233105 51 273 4.0 6.0 0.00 0.00 0.00 100 942.0
20260507232705 51 253 5.0 7.0 0.00 0.00 0.00 100 942.1
20260507232307 51 243 7.0 10.0 0.00 0.00 0.00 100 942.1
20260507231905 51 239 7.0 8.0 0.00 0.00 0.00 100 942.1
20260507231505 51 241 6.0 8.0 0.00 0.00 0.00 100 942.1
20260507231102 51 244 6.0 7.0 0.00 0.00 0.00 100 942.1
20260507230703 51 249 5.0 6.0 0.00 0.00 0.00 100 942.1
20260507230303 51 253 6.0 8.0 0.00 0.00 0.00 100 942.1
20260507225903 51 257 5.0 6.0 0.00 0.00 0.00 100 942.1
20260507225502 51 257 5.0 6.0 0.00 0.00 0.00 100 942.1
20260507225059 51 262 5.0 7.0 0.00 0.00 0.00 100 942.1
20260507224656 51 247 6.0 7.0 0.00 0.00 0.00 100 942.1
20260507224256 51 260 5.0 6.0 0.00 0.00 0.00 100 942.1
20260507223845 51 250 5.0 6.0 0.00 0.00 0.00 100 942.1
20260507223445 51 244 6.0 7.0 0.00 0.00 0.00 100 942.1
20260507223042 51 251 6.0 7.0 0.00 0.00 0.00 100 942.2
20260507222642 51 250 5.0 7.0 0.00 0.00 0.00 100 942.2
20260507222242 51 248 6.0 7.0 0.00 0.00 0.00 100 942.2
20260507221842 51 266 5.0 6.0 0.00 0.00 0.00 100 942.2
20260507221442 51 253 5.0 6.0 0.00 0.00 0.00 100 942.2
20260507221039 51 248 6.0 8.0 0.00 0.00 0.00 100 942.3
20260507220639 51 239 6.0 7.0 0.00 0.00 0.00 100 942.2
20260507220239 51 240 6.0 7.0 0.00 0.00 0.00 100 942.2
20260507215839 52 241 6.0 8.0 0.00 0.00 0.00 100 942.2
20260507215439 52 244 5.0 6.0 0.00 0.00 0.00 100 942.1
20260507215036 52 253 4.0 4.0 0.00 0.00 0.00 100 942.1
20260507214636 52 296 1.0 3.0 0.00 0.00 0.00 100 942.0
20260507214236 52 305 1.0 2.0 0.00 0.00 0.00 100 941.9
20260507213836 52 306 2.0 3.0 0.00 0.00 0.00 100 941.9
20260507213436 52 313 2.0 3.0 0.00 0.00 0.00 100 941.8
20260507213034 52 323 1.0 2.0 0.00 0.00 0.00 100 941.8
20260507212634 52 349 2.0 4.0 0.00 0.00 0.00 100 941.7
20260507212234 52 329 2.0 3.0 0.00 0.00 0.00 100 941.8
20260507211434 52 311 2.0 3.0 0.00 0.00 0.00 100 941.8
20260507211031 52 303 4.0 7.0 0.00 0.00 0.00 100 941.9
20260507210630 52 294 3.0 5.0 0.00 0.00 0.00 100 941.9
20260507210230 51 280 5.0 8.0 0.00 0.00 0.00 100 942.0
20260507205830 51 276 8.0 10.0 0.00 0.00 0.00 100 942.0
20260507205430 51 277 7.0 9.0 0.00 0.00 0.00 100 942.0
20260507205027 51 277 7.0 9.0 0.00 0.00 0.00 100 942.0
20260507204628 52 273 7.0 9.0 0.00 0.00 0.00 100 942.0
20260507204224 52 259 8.0 12.0 0.00 0.00 0.00 100 942.0
20260507203824 52 263 8.0 13.0 0.00 0.00 0.00 100 942.0
20260507203424 52 247 8.0 10.0 0.00 0.00 0.00 100 941.9
20260507203021 52 261 7.0 10.0 0.00 0.00 0.00 100 942.0
20260507202622 52 258 7.0 9.0 0.00 0.00 0.00 100 942.0
20260507202222 52 268 7.0 10.0 0.00 0.00 0.00 100 942.0
20260507201822 52 260 6.0 8.0 0.00 0.00 0.00 100 942.0
20260507201422 52 273 4.0 6.0 0.00 0.00 0.00 100 941.9
20260507201019 52 272 7.0 8.0 0.00 0.00 0.00 100 941.9
20260507200619 53 280 6.0 8.0 0.00 0.00 0.00 100 941.9
20260507200210 53 280 8.0 11.0 0.00 0.00 0.00 100 941.8
20260507195810 53 265 8.0 11.0 0.00 0.00 0.00 100 941.9
20260507195410 53 254 8.0 10.0 0.00 0.00 0.00 100 941.8
20260507195007 54 246 6.0 7.0 0.00 0.00 0.00 100 941.9
20260507194608 54 282 9.0 12.0 0.00 0.00 0.00 100 942.0
20260507194208 54 288 4.0 8.0 0.00 0.00 0.00 100 941.9
20260507193808 55 265 5.0 7.0 0.00 0.00 0.00 100 941.9
20260507193408 55 282 5.0 6.0 0.00 0.00 0.00 100 941.9
20260507193005 55 282 3.0 5.0 0.00 0.00 0.00 100 941.8
20260507192605 55 278 2.0 4.0 0.00 0.00 0.00 100 941.8
20260507192205 55 276 3.0 4.0 0.00 0.00 0.00 100 941.7
20260507191805 55 316 3.0 6.0 0.00 0.00 0.00 100 941.6
20260507191405 55 337 4.0 6.0 0.00 0.00 0.00 100 941.4
20260507191002 55 325 5.0 6.0 0.00 0.00 0.00 100 941.4
20260507190602 55 26 5.0 6.0 0.00 0.00 0.00 100 941.3
20260507190202 55 113 6.0 8.0 0.00 0.00 0.00 100 941.3
20260507185802 56 15 4.0 6.0 0.00 0.00 0.00 100 941.4
20260507185402 56 332 3.0 4.0 0.00 0.00 0.00 100 941.4
20260507184959 55 331 2.0 5.0 0.00 0.00 0.00 100 941.5
20260507184559 55 318 3.0 5.0 0.00 0.00 0.00 100 941.5
20260507184159 55 317 5.0 6.0 0.00 0.00 0.00 100 941.4
20260507183756 55 313 5.0 7.0 0.00 0.00 0.00 100 941.4
20260507183356 55 323 4.0 7.0 0.00 0.00 0.00 100 941.4
20260507182953 56 313 6.0 8.0 0.00 0.00 0.00 100 941.3
20260507182553 56 312 5.0 7.0 0.00 0.00 0.00 100 941.3
20260507182153 56 313 5.0 7.0 0.00 0.00 0.00 100 941.3
20260507181753 56 315 5.0 9.0 0.00 0.00 0.00 100 941.3
20260507181353 57 313 7.0 10.0 0.00 0.00 0.00 100 941.2
20260507180950 57 306 5.0 7.0 0.00 0.00 0.00 100 941.2
20260507180550 57 311 3.0 6.0 0.00 0.00 0.00 100 941.1
20260507180150 57 313 4.0 6.0 0.00 0.00 0.00 100 941.1
20260507175750 58 297 4.0 6.0 0.00 0.00 0.00 100 941.0
20260507175350 58 289 7.0 9.0 0.00 0.00 0.00 100 941.0
20260507174948 58 289 6.0 10.0 0.00 0.00 0.00 100 941.0
20260507174547 58 288 9.0 13.0 0.00 0.00 0.00 100 941.0
20260507174148 58 262 9.0 11.0 0.00 0.00 0.00 100 940.9
20260507173748 58 274 10.0 18.0 0.00 0.00 0.00 100 940.9
20260507173348 58 249 18.0 22.0 0.00 0.00 0.00 100 940.8
20260507172933 58 234 17.0 21.0 0.00 0.00 0.00 100 940.8
20260507172533 58 233 18.0 24.0 0.00 0.00 0.00 100 940.7
20260507171733 58 231 20.0 27.0 0.00 0.00 0.00 100 940.8
20260507171334 58 236 15.0 18.0 0.00 0.00 0.00 100 940.6
20260507170931 58 232 16.0 19.0 0.00 0.00 0.00 100 940.6
20260507170531 58 229 16.0 20.0 0.00 0.00 0.00 100 940.6
20260507170131 58 227 14.0 18.0 0.00 0.00 0.00 100 940.6
20260507165731 59 227 14.0 17.0 0.00 0.00 0.00 100 940.6
20260507165331 59 227 13.0 17.0 0.00 0.00 0.00 100 940.5
20260507164928 59 228 14.0 18.0 0.00 0.00 0.00 100 940.5
20260507164527 59 228 15.0 19.0 0.00 0.00 0.00 100 940.4
20260507164128 59 227 12.0 20.0 0.00 0.00 0.00 100 940.4
20260507163728 59 225 14.0 20.0 0.00 0.00 0.00 100 940.3
20260507163324 60 228 15.0 20.0 0.00 0.00 0.00 100 940.3
20260507162921 60 227 14.0 20.0 0.00 0.00 0.00 100 940.4
20260507162521 60 228 16.0 21.0 0.00 0.00 0.00 100 940.4
20260507162122 61 229 14.0 20.0 0.00 0.00 0.00 100 940.3
20260507161722 61 228 14.0 21.0 0.00 0.00 0.00 100 940.4
20260507161322 60 229 11.0 14.0 0.00 0.00 0.00 100 940.4
20260507160919 60 231 9.0 14.0 0.00 0.00 0.00 100 940.5
20260507160519 60 233 10.0 14.0 0.00 0.00 0.00 100 940.4
20260507160119 61 227 15.0 19.0 0.00 0.00 0.00 100 940.4
20260507155719 61 232 11.0 18.0 0.00 0.00 0.00 100 940.4
20260507155319 61 234 11.0 16.0 0.00 0.00 0.00 100 940.4
20260507154916 61 230 10.0 15.0 0.00 0.00 0.00 100 940.5
20260507154516 60 229 18.0 22.0 0.00 0.00 0.00 100 940.4
20260507154116 60 230 16.0 21.0 0.00 0.00 0.00 100 940.5
20260507153716 60 227 18.0 23.0 0.00 0.00 0.00 100 940.6
20260507153316 60 231 16.0 24.0 0.00 0.00 0.00 100 940.6
20260507152913 60 230 13.0 18.0 0.00 0.00 0.00 100 940.7
20260507152513 59 225 12.0 19.0 0.00 0.00 0.00 100 940.8
20260507152113 59 228 13.0 17.0 0.00 0.00 0.00 100 940.8
20260507151713 59 228 15.0 20.0 0.00 0.00 0.00 100 940.8
20260507151313 59 228 9.0 14.0 0.00 0.00 0.00 100 940.9
20260507150910 60 227 12.0 15.0 0.00 0.00 0.00 100 940.9
20260507150510 60 227 11.0 15.0 0.00 0.00 0.00 100 940.9
20260507150110 60 227 12.0 16.0 0.00 0.00 0.00 100 940.8
20260507145710 60 228 11.0 15.0 0.00 0.00 0.00 100 940.8
20260507145301 60 233 10.0 13.0 0.00 0.00 0.00 100 940.8
20260507144859 60 236 10.0 15.0 0.00 0.00 0.00 100 940.8
20260507144459 61 236 12.0 17.0 0.00 0.00 0.00 100 940.8
20260507143659 61 235 10.0 13.0 0.00 0.00 0.00 100 940.9
20260507143259 61 236 12.0 18.0 0.00 0.00 0.00 100 940.8
20260507142852 61 234 13.0 20.0 0.00 0.00 0.00 100 940.8
20260507142452 61 232 15.0 20.0 0.00 0.00 0.00 100 940.8
20260507142052 61 233 13.0 19.0 0.00 0.00 0.00 100 940.8
20260507141652 61 237 19.0 22.0 0.00 0.00 0.00 100 940.7
20260507141252 61 241 21.0 26.0 0.00 0.00 0.00 100 940.7
20260507140849 62 237 21.0 30.0 0.00 0.00 0.00 100 940.7
20260507140449 62 237 23.0 35.0 0.00 0.00 0.00 100 940.7
20260507140049 62 233 19.0 28.0 0.00 0.00 0.00 100 940.7
20260507135649 62 237 20.0 25.0 0.00 0.00 0.00 100 940.7
20260507135249 63 239 21.0 28.0 0.00 0.00 0.00 100 940.7
20260507134846 63 237 15.0 22.0 0.00 0.00 0.00 100 940.6
20260507134447 63 241 20.0 23.0 0.00 0.00 0.00 100 940.5
20260507134047 63 237 20.0 27.0 0.00 0.00 0.00 100 940.5
20260507133647 63 233 18.0 24.0 0.00 0.00 0.00 100 940.5
20260507133247 63 233 14.0 19.0 0.00 0.00 0.00 100 940.4
20260507132844 63 232 17.0 23.0 0.00 0.00 0.00 100 940.4
20260507132444 63 237 16.0 23.0 0.00 0.00 0.00 100 940.3
20260507132044 63 233 17.0 24.0 0.00 0.00 0.00 100 940.4
20260507131644 63 235 21.0 25.0 0.00 0.00 0.00 100 940.3
20260507131244 63 237 18.0 26.0 0.00 0.00 0.00 100 940.4
20260507130841 63 239 16.0 20.0 0.00 0.00 0.00 100 940.4
20260507130441 63 241 18.0 24.0 0.00 0.00 0.00 100 940.4
20260507130041 63 240 17.0 22.0 0.00 0.00 0.00 100 940.3
20260507125641 63 238 18.0 23.0 0.00 0.00 0.00 100 940.4
20260507125241 62 240 18.0 20.0 0.00 0.00 0.00 100 940.3
20260507124838 62 243 20.0 26.0 0.00 0.00 0.00 100 940.3
20260507124438 61 243 24.0 30.0 0.00 0.00 0.00 100 940.3
20260507124038 61 245 23.0 30.0 0.00 0.00 0.00 100 940.3
20260507123638 62 249 29.0 35.0 0.00 0.00 0.00 100 940.5
20260507123238 62 246 30.0 42.0 0.00 0.00 0.00 100 940.5
20260507122835 63 245 29.0 40.0 0.00 0.00 0.00 100 940.4
20260507122432 63 248 30.0 39.0 0.00 0.00 0.00 100 940.5
20260507122032 63 248 29.0 40.0 0.00 0.00 0.00 100 940.4
20260507121620 63 245 27.0 42.0 0.00 0.00 0.00 100 940.4
20260507121221 63 243 27.0 39.0 0.00 0.00 0.00 100 940.4
20260507120818 64 241 26.0 39.0 0.00 0.00 0.00 100 940.5
20260507120418 64 241 26.0 36.0 0.00 0.00 0.00 100 940.5
20260507120018 64 243 20.0 26.0 0.00 0.00 0.00 100 940.5
20260507115618 64 242 25.0 35.0 0.00 0.00 0.00 100 940.5
20260507115218 64 245 26.0 35.0 0.00 0.00 0.00 100 940.4
20260507114815 64 244 30.0 44.0 0.00 0.00 0.00 100 940.4
20260507114415 65 240 19.0 23.0 0.00 0.00 0.00 100 940.5
20260507114015 65 242 25.0 38.0 0.00 0.00 0.00 100 940.5
20260507113615 65 240 20.0 28.0 0.00 0.00 0.00 100 940.6
20260507113215 65 238 20.0 28.0 0.00 0.00 0.00 100 940.6
20260507112812 65 239 18.0 26.0 0.00 0.00 0.00 100 940.5
20260507112412 65 241 22.0 27.0 0.00 0.00 0.00 100 940.5
20260507112012 64 238 21.0 28.0 0.00 0.00 0.00 100 940.6
20260507111612 64 237 19.0 29.0 0.00 0.00 0.00 100 940.5
20260507111212 64 239 18.0 25.0 0.00 0.00 0.00 100 940.5
20260507110809 64 241 19.0 27.0 0.00 0.00 0.00 100 940.6
20260507110409 65 241 18.0 24.0 0.00 0.00 0.00 100 940.6
20260507110009 65 241 21.0 30.0 0.00 0.00 0.00 100 940.6
20260507105210 65 241 20.0 34.0 0.00 0.00 0.00 100 940.5
20260507104807 66 241 22.0 28.0 0.00 0.00 0.00 100 940.5
20260507104406 66 241 22.0 32.0 0.00 0.00 0.00 100 940.5
20260507104006 65 246 28.0 38.0 0.00 0.00 0.00 100 940.5
20260507103606 65 244 31.0 40.0 0.00 0.00 0.00 100 940.5
20260507103206 65 244 27.0 38.0 0.00 0.00 0.00 100 940.5
20260507102803 65 244 33.0 44.0 0.00 0.00 0.00 100 940.4
20260507102404 65 243 28.0 44.0 0.00 0.00 0.00 100 940.4
20260507102000 66 245 32.0 44.0 0.00 0.00 0.00 100 940.4
20260507101601 66 243 29.0 43.0 0.00 0.00 0.00 100 940.4
20260507101200 66 245 23.0 35.0 0.00 0.00 0.00 100 940.5
20260507100757 66 250 27.0 35.0 0.00 0.00 0.00 100 940.4
20260507100357 66 245 28.0 35.0 0.00 0.00 0.00 100 940.4
20260507095957 65 247 27.0 37.0 0.00 0.00 0.00 100 940.5
20260507095557 64 245 24.0 34.0 0.00 0.00 0.00 100 940.6
20260507095157 64 245 33.0 43.0 0.00 0.00 0.00 100 940.5
20260507094755 64 242 26.0 36.0 0.00 0.00 0.00 100 940.5
20260507094355 64 249 30.0 39.0 0.00 0.00 0.00 100 940.5
20260507093946 65 242 24.0 36.0 0.00 0.00 0.00 100 940.4
20260507093546 65 242 26.0 36.0 0.00 0.00 0.00 100 940.4
20260507093146 66 242 26.0 39.0 0.00 0.00 0.00 100 940.4
20260507092743 66 242 30.0 38.0 0.00 0.00 0.00 100 940.4
20260507092343 65 243 24.0 33.0 0.00 0.00 0.00 100 940.4
20260507091943 64 243 24.0 37.0 0.00 0.00 0.00 100 940.4
20260507091543 64 244 33.0 40.0 0.00 0.00 0.00 100 940.3
20260507091143 64 244 30.0 40.0 0.00 0.00 0.00 100 940.3
20260507090741 64 243 32.0 41.0 0.00 0.00 0.00 100 940.3
20260507090341 63 242 24.0 34.0 0.00 0.00 0.00 100 940.2
20260507085941 63 243 29.0 40.0 0.00 0.00 0.00 100 940.3
20260507085541 63 241 25.0 39.0 0.00 0.00 0.00 100 940.3
20260507085141 63 242 24.0 30.0 0.00 0.00 0.00 100 940.2
20260507084738 63 242 26.0 35.0 0.00 0.00 0.00 100 940.3
20260507084338 63 243 22.0 28.0 0.00 0.00 0.00 100 940.3
20260507083938 63 239 22.0 33.0 0.00 0.00 0.00 100 940.2
20260507083537 64 242 21.0 32.0 0.00 0.00 0.00 100 940.1
20260507083137 64 241 18.0 24.0 0.00 0.00 0.00 100 940.2
20260507082735 64 238 18.0 25.0 0.00 0.00 0.00 100 940.1
20260507082335 64 243 23.0 27.0 0.00 0.00 0.00 100 940.1
20260507081935 64 244 23.0 33.0 0.00 0.00 0.00 100 940.1
20260507081532 63 242 19.0 27.0 0.00 0.00 0.00 100 940.0
20260507081132 63 244 25.0 33.0 0.00 0.00 0.00 100 940.0
20260507080729 63 237 21.0 29.0 0.00 0.00 0.00 100 940.0
20260507080329 63 234 13.0 20.0 0.00 0.00 0.00 100 940.0
20260507075929 63 230 17.0 25.0 0.00 0.00 0.00 100 940.1
20260507075529 63 226 20.0 26.0 0.00 0.00 0.00 100 940.0
20260507075129 63 235 14.0 20.0 0.00 0.00 0.00 100 940.0
20260507074726 62 236 16.0 20.0 0.00 0.00 0.00 100 939.9
20260507074326 62 232 16.0 24.0 0.00 0.00 0.00 100 940.0
20260507073926 62 234 14.0 17.0 0.00 0.00 0.00 100 940.0
20260507073526 61 234 11.0 18.0 0.00 0.00 0.00 100 940.0
20260507073126 61 232 12.0 18.0 0.00 0.00 0.00 100 940.0
20260507072723 61 236 16.0 19.0 0.00 0.00 0.00 100 940.0
20260507072323 60 234 19.0 25.0 0.00 0.00 0.00 100 940.0
20260507071923 60 234 21.0 26.0 0.00 0.00 0.00 100 939.9
20260507071523 60 238 16.0 24.0 0.00 0.00 0.00 100 939.9
20260507071123 60 240 16.0 20.0 0.00 0.00 0.00 100 939.8
20260507070709 60 236 15.0 18.0 0.00 0.00 0.00 100 939.8
20260507070309 60 240 19.0 22.0 0.00 0.00 0.00 100 939.7
20260507065509 60 242 22.0 26.0 0.00 0.00 0.00 100 939.5
20260507065109 60 243 20.0 26.0 0.00 0.00 0.00 100 939.4
20260507064706 60 242 23.0 30.0 0.00 0.00 0.00 100 939.4
20260507064306 60 243 20.0 27.0 0.00 0.00 0.00 100 939.3
20260507063907 61 241 23.0 27.0 0.00 0.00 0.00 100 939.4
20260507063507 61 252 20.0 27.0 0.00 0.00 0.00 100 939.4
20260507063107 61 245 22.0 27.0 0.00 0.00 0.00 100 939.4
20260507062704 61 244 20.0 25.0 0.00 0.00 0.00 100 939.4
20260507062306 61 254 19.0 25.0 0.00 0.00 0.00 100 939.4
20260507061903 61 232 18.0 21.0 0.00 0.00 0.00 100 939.4
20260507061503 61 235 16.0 19.0 0.00 0.00 0.00 100 939.4
20260507061100 62 233 14.0 21.0 0.00 0.00 0.00 100 939.4
20260507060657 62 232 12.0 18.0 0.00 0.00 0.00 100 939.3
20260507060257 61 233 14.0 18.0 0.00 0.00 0.00 100 939.1
20260507055857 61 238 13.0 18.0 0.00 0.00 0.00 100 939.1
20260507055457 61 233 15.0 22.0 0.00 0.00 0.00 100 939.0
20260507055057 61 233 14.0 22.0 0.00 0.00 0.00 100 938.9
20260507054654 60 233 13.0 18.0 0.00 0.00 0.00 100 938.9
20260507054255 60 230 13.0 16.0 0.00 0.00 0.00 100 939.0
20260507053855 60 236 12.0 19.0 0.00 0.00 0.00 100 938.9
20260507053455 60 233 12.0 16.0 0.00 0.00 0.00 100 939.0
20260507053055 60 235 11.0 17.0 0.00 0.00 0.00 100 939.0
20260507052652 60 237 11.0 14.0 0.00 0.00 0.00 100 939.0
20260507052252 60 236 15.0 18.0 0.00 0.00 0.00 100 939.0
20260507051852 60 235 13.0 19.0 0.00 0.00 0.00 100 939.1
20260507051452 60 235 14.0 19.0 0.00 0.00 0.00 100 939.1
20260507051052 59 229 15.0 21.0 0.00 0.00 0.00 100 939.1
20260507050649 59 230 16.0 22.0 0.00 0.00 0.00 100 939.2
20260507050249 59 233 17.0 22.0 0.00 0.00 0.00 100 939.2
20260507045849 59 234 18.0 22.0 0.00 0.00 0.00 100 939.2
20260507045449 59 236 16.0 21.0 0.00 0.00 0.00 100 939.2
20260507045049 59 236 16.0 18.0 0.00 0.00 0.00 100 939.3
20260507044646 59 235 18.0 23.0 0.00 0.00 0.00 100 939.3
20260507044246 59 235 16.0 20.0 0.00 0.00 0.00 100 939.3
20260507043846 59 235 16.0 20.0 0.00 0.00 0.00 100 939.3
20260507043446 59 237 17.0 20.0 0.00 0.00 0.00 100 939.3
20260507043037 59 235 18.0 22.0 0.00 0.00 0.00 100 939.2
20260507042634 59 237 19.0 21.0 0.00 0.00 0.00 100 939.2
20260507042234 59 235 17.0 24.0 0.00 0.00 0.00 100 939.1
20260507041435 59 239 20.0 26.0 0.00 0.00 0.00 100 939.1
20260507041035 59 238 18.0 30.0 0.00 0.00 0.00 100 939.1
20260507040628 59 236 18.0 22.0 0.00 0.00 0.00 100 939.0
20260507040228 59 236 16.0 21.0 0.00 0.00 0.00 100 939.0
20260507035828 59 237 15.0 20.0 0.00 0.00 0.00 100 939.0
20260507035428 59 237 16.0 22.0 0.00 0.00 0.00 100 938.9
20260507035028 58 236 16.0 25.0 0.00 0.00 0.00 100 938.9
20260507034625 58 235 16.0 24.0 0.00 0.00 0.00 100 938.9
20260507034225 58 231 16.0 27.0 0.00 0.00 0.00 100 938.9